| time (UTC) | temp F | wind direction | speed MPH | gust MPH | rain 1hr in | rain 24hr in | rain mn in | humidity % | barometer mb |
| 20260904014527 | 84 | 209 | 0.0 | 1.0 | 0.00 | 0.00 | 0.00 | 61 | 1013.9 |
| 20260904013026 | 84 | 209 | 0.0 | 2.0 | 0.00 | 0.00 | 0.00 | 60 | 1013.8 |
| 20260904011553 | 85 | 167 | 0.0 | 3.0 | 0.00 | 0.00 | 0.00 | 59 | 1013.6 |
| 20260904010004 | 86 | 240 | 0.0 | 2.0 | 0.00 | 0.00 | 0.00 | 59 | 1013.5 |
| 20260904004503 | 88 | 294 | 0.0 | 2.0 | 0.00 | 0.00 | 0.00 | 56 | 1013.4 |
| 20260904003004 | 90 | 264 | 1.0 | 4.0 | 0.00 | 0.00 | 0.00 | 51 | 1013.2 |
| 20260904001506 | 92 | 196 | 1.0 | 6.0 | 0.00 | 0.00 | 0.00 | 49 | 1013.3 |
| 20260904000007 | 92 | 297 | 2.0 | 7.0 | 0.00 | 0.00 | 0.00 | 48 | 1013.3 |
| 20260903234505 | 94 | 279 | 2.0 | 6.0 | 0.00 | 0.00 | 0.00 | 45 | 1013.2 |
| 20260903233015 | 94 | 282 | 1.0 | 6.0 | 0.00 | 0.00 | 0.00 | 43 | 1013.1 |
| 20260903231505 | 95 | 231 | 3.0 | 9.0 | 0.00 | 0.00 | 0.00 | 41 | 1013.0 |
| 20260903230013 | 95 | 254 | 1.0 | 7.0 | 0.00 | 0.00 | 0.00 | 41 | 1012.8 |
| 20260903224510 | 96 | 315 | 2.0 | 7.0 | 0.00 | 0.00 | 0.00 | 39 | 1012.9 |
| 20260903223013 | 96 | 57 | 2.0 | 6.0 | 0.00 | 0.00 | 0.00 | 40 | 1012.8 |
| 20260903221505 | 95 | 200 | 2.0 | 6.0 | 0.00 | 0.00 | 0.00 | 40 | 1012.9 |
| 20260903220008 | 97 | 225 | 2.0 | 6.0 | 0.00 | 0.00 | 0.00 | 39 | 1013.0 |
| 20260903214518 | 96 | 246 | 2.0 | 7.0 | 0.00 | 0.00 | 0.00 | 40 | 1013.0 |
| 20260903213029 | 96 | 171 | 0.0 | 6.0 | 0.00 | 0.00 | 0.00 | 42 | 1013.1 |
| 20260903211509 | 98 | 228 | 3.0 | 7.0 | 0.00 | 0.00 | 0.00 | 38 | 1013.3 |
| 20260903210006 | 97 | 352 | 2.0 | 13.0 | 0.00 | 0.00 | 0.00 | 39 | 1013.3 |
| 20260903204510 | 99 | 215 | 2.0 | 5.0 | 0.00 | 0.00 | 0.00 | 39 | 1013.5 |
| 20260903203018 | 97 | 185 | 2.0 | 11.0 | 0.00 | 0.00 | 0.00 | 38 | 1013.6 |
| 20260903201533 | 99 | 186 | 3.0 | 10.0 | 0.00 | 0.00 | 0.00 | 37 | 1013.7 |
| 20260903200009 | 99 | 13 | 2.0 | 6.0 | 0.00 | 0.00 | 0.00 | 37 | 1013.9 |
| 20260903194512 | 98 | 207 | 1.0 | 5.0 | 0.00 | 0.00 | 0.00 | 37 | 1013.9 |
| 20260903193023 | 99 | 286 | 2.0 | 5.0 | 0.00 | 0.00 | 0.00 | 38 | 1014.1 |
| 20260903191510 | 98 | 258 | 1.0 | 7.0 | 0.00 | 0.00 | 0.00 | 39 | 1014.1 |
| 20260903190009 | 97 | 227 | 3.0 | 10.0 | 0.00 | 0.00 | 0.00 | 40 | 1014.4 |
| 20260903184510 | 97 | 240 | 2.0 | 7.0 | 0.00 | 0.00 | 0.00 | 41 | 1014.7 |
| 20260903183015 | 96 | 178 | 3.0 | 10.0 | 0.00 | 0.00 | 0.00 | 40 | 1014.8 |
| 20260903181524 | 96 | 213 | 2.0 | 7.0 | 0.00 | 0.00 | 0.00 | 40 | 1014.9 |
| 20260903180023 | 95 | 217 | 4.0 | 11.0 | 0.00 | 0.00 | 0.00 | 41 | 1015.2 |
| 20260903174505 | 95 | 281 | 1.0 | 5.0 | 0.00 | 0.00 | 0.00 | 43 | 1015.4 |
| 20260903173008 | 94 | 182 | 2.0 | 10.0 | 0.00 | 0.00 | 0.00 | 43 | 1015.6 |
| 20260903171508 | 93 | 227 | 4.0 | 13.0 | 0.00 | 0.00 | 0.00 | 44 | 1015.9 |
| 20260903170016 | 93 | 254 | 2.0 | 9.0 | 0.00 | 0.00 | 0.00 | 47 | 1016.0 |
| 20260903164514 | 92 | 221 | 2.0 | 9.0 | 0.00 | 0.00 | 0.00 | 47 | 1016.2 |
| 20260903163014 | 90 | 317 | 2.0 | 8.0 | 0.00 | 0.00 | 0.00 | 49 | 1016.3 |
| 20260903161516 | 90 | 304 | 3.0 | 8.0 | 0.00 | 0.00 | 0.00 | 51 | 1016.4 |
| 20260903160028 | 89 | 247 | 1.0 | 9.0 | 0.00 | 0.00 | 0.00 | 52 | 1016.3 |
| 20260903154504 | 88 | 206 | 3.0 | 8.0 | 0.00 | 0.00 | 0.00 | 54 | 1016.5 |
| 20260903153007 | 87 | 281 | 2.0 | 6.0 | 0.00 | 0.00 | 0.00 | 57 | 1016.5 |
| 20260903151506 | 86 | 181 | 1.0 | 7.0 | 0.00 | 0.00 | 0.00 | 59 | 1016.6 |
| 20260903150027 | 84 | 182 | 1.0 | 4.0 | 0.00 | 0.00 | 0.00 | 65 | 1016.7 |
| 20260903144540 | 82 | 207 | 1.0 | 6.0 | 0.00 | 0.00 | 0.00 | 68 | 1016.8 |
| 20260903143006 | 81 | 175 | 1.0 | 4.0 | 0.00 | 0.00 | 0.00 | 72 | 1017.0 |
| 20260903141513 | 78 | 169 | 0.0 | 4.0 | 0.00 | 0.00 | 0.00 | 1017.1 | |
| 20260903140010 | 75 | 123 | 1.0 | 2.0 | 0.00 | 0.00 | 0.00 | 84 | 1017.2 |
| 20260903134505 | 74 | 184 | 0.0 | 2.0 | 0.00 | 0.00 | 0.00 | 86 | 1017.2 |
| 20260903133008 | 73 | 227 | 0.0 | 1.0 | 0.00 | 0.00 | 0.00 | 87 | 1017.3 |
| 20260903131510 | 71 | 232 | 0.0 | 1.0 | 0.00 | 0.00 | 0.00 | 89 | 1017.4 |
| 20260903130019 | 70 | 238 | 0.0 | 1.0 | 0.00 | 0.00 | 0.00 | 91 | 1017.3 |
| 20260903124518 | 69 | 238 | 0.0 | 1.0 | 0.00 | 0.00 | 0.00 | 92 | 1017.2 |
| 20260903123016 | 69 | 238 | 0.0 | 1.0 | 0.00 | 0.00 | 0.00 | 92 | 1017.1 |
| 20260903121526 | 69 | 231 | 0.0 | 0.0 | 0.00 | 0.00 | 0.00 | 92 | 1017.1 |
| 20260903120019 | 69 | 231 | 0.0 | 1.0 | 0.00 | 0.00 | 0.00 | 91 | 1017.0 |
| 20260903114513 | 69 | 231 | 0.0 | 0.0 | 0.00 | 0.00 | 0.00 | 92 | 1017.0 |
| 20260903113019 | 69 | 231 | 0.0 | 1.0 | 0.00 | 0.00 | 0.00 | 92 | 1016.8 |
| 20260903111516 | 69 | 222 | 0.0 | 1.0 | 0.00 | 0.00 | 0.00 | 91 | 1016.6 |
| 20260903110019 | 69 | 222 | 0.0 | 0.0 | 0.00 | 0.00 | 0.00 | 91 | 1016.6 |
| 20260903104516 | 69 | 222 | 0.0 | 0.0 | 0.00 | 0.00 | 0.00 | 91 | 1016.6 |
| 20260903103023 | 70 | 223 | 0.0 | 1.0 | 0.00 | 0.00 | 0.00 | 90 | 1016.4 |
| 20260903101526 | 70 | 222 | 0.0 | 1.0 | 0.00 | 0.00 | 0.00 | 90 | 1016.3 |
| 20260903100022 | 70 | 234 | 0.0 | 1.0 | 0.00 | 0.00 | 0.00 | 90 | 1016.4 |
| 20260903094543 | 71 | 234 | 0.0 | 1.0 | 0.00 | 0.00 | 0.00 | 90 | 1016.5 |
| 20260903093032 | 71 | 234 | 0.0 | 1.0 | 0.00 | 0.00 | 0.00 | 89 | 1016.3 |
| 20260903091525 | 71 | 234 | 0.0 | 0.0 | 0.00 | 0.00 | 0.00 | 89 | 1016.3 |
| 20260903090018 | 71 | 234 | 0.0 | 0.0 | 0.00 | 0.00 | 0.00 | 89 | 1016.2 |
| 20260903084516 | 71 | 234 | 0.0 | 0.0 | 0.00 | 0.00 | 0.00 | 89 | 1016.2 |
| 20260903083024 | 71 | 234 | 0.0 | 0.0 | 0.00 | 0.00 | 0.00 | 88 | 1016.2 |
| 20260903081530 | 72 | 234 | 0.0 | 0.0 | 0.00 | 0.00 | 0.00 | 88 | 1016.0 |
| 20260903080027 | 72 | 234 | 0.0 | 1.0 | 0.00 | 0.00 | 0.00 | 88 | 1015.9 |
| 20260903074526 | 72 | 234 | 0.0 | 1.0 | 0.00 | 0.00 | 0.00 | 87 | 1015.8 |
| 20260903073030 | 73 | 234 | 0.0 | 1.0 | 0.00 | 0.00 | 0.00 | 86 | 1015.9 |
| 20260903071529 | 73 | 318 | 0.0 | 2.0 | 0.00 | 0.00 | 0.00 | 87 | 1015.9 |
| 20260903070033 | 73 | 10 | 0.0 | 1.0 | 0.00 | 0.00 | 0.00 | 1015.8 | |
| 20260903064531 | 74 | 41 | 0.0 | 1.0 | 0.00 | 0.00 | 0.00 | 84 | 1015.8 |
| 20260903063028 | 74 | 40 | 0.0 | 0.0 | 0.00 | 0.00 | 0.00 | 1015.7 | |
| 20260903061525 | 74 | 45 | 0.0 | 1.0 | 0.00 | 0.00 | 0.00 | 83 | 1015.8 |
| 20260903060001 | 75 | 55 | 0.0 | 2.0 | 0.00 | 0.00 | 0.00 | 81 | 1015.8 |
| 20260903054502 | 75 | 27 | 0.0 | 1.0 | 0.00 | 0.00 | 0.00 | 81 | 1015.8 |
| 20260903053001 | 76 | 60 | 0.0 | 1.0 | 0.00 | 0.00 | 0.00 | 80 | 1015.7 |
| 20260903051503 | 76 | 66 | 0.0 | 2.0 | 0.00 | 0.00 | 0.00 | 79 | 1015.7 |
| 20260903050009 | 77 | 39 | 0.0 | 1.0 | 0.00 | 0.00 | 0.00 | 78 | 1015.6 |
| 20260903044504 | 77 | 34 | 0.0 | 2.0 | 0.00 | 0.00 | 0.00 | 77 | 1015.5 |
| 20260903043005 | 78 | 321 | 0.0 | 2.0 | 0.00 | 0.00 | 0.00 | 75 | 1015.7 |
| 20260903041506 | 79 | 36 | 0.0 | 2.0 | 0.00 | 0.00 | 0.00 | 73 | 1015.8 |
| 20260903040013 | 79 | 352 | 0.0 | 2.0 | 0.00 | 0.00 | 0.00 | 73 | 1015.6 |
| 20260903034501 | 81 | 54 | 0.0 | 2.0 | 0.00 | 0.00 | 0.00 | 70 | 1015.5 |
| 20260903033013 | 81 | 30 | 0.0 | 2.0 | 0.00 | 0.00 | 0.00 | 69 | 1015.6 |
| 20260903031504 | 81 | 13 | 0.0 | 1.0 | 0.00 | 0.00 | 0.00 | 68 | 1015.5 |
| 20260903030004 | 82 | 95 | 0.0 | 3.0 | 0.00 | 0.00 | 0.00 | 67 | 1015.5 |
| 20260903024507 | 82 | 111 | 0.0 | 1.0 | 0.00 | 0.00 | 0.00 | 65 | 1015.6 |
| 20260903023004 | 83 | 111 | 0.0 | 2.0 | 0.00 | 0.00 | 0.00 | 63 | 1015.3 |
| 20260903021505 | 84 | 144 | 0.0 | 2.0 | 0.00 | 0.00 | 0.00 | 62 | 1015.3 |
| 20260903020011 | 84 | 228 | 0.0 | 2.0 | 0.00 | 0.00 | 0.00 | 61 | 1015.1 |